owner,sensor,date,latitude,longitude,sea_surface_height_above_sea_level,qcFlag 
COMPS,ioos:station:USF.COMPS:FHP:1,2013-11-01T00:00:00Z,28.1530,-82.8010,0.487,1111122 
COMPS,ioos:station:USF.COMPS:FHP:1,2013-11-01T00:06:00Z,28.1530,-82.8010,0.508,1111122 
COMPS,ioos:station:USF.COMPS:FHP:1,2013-11-01T00:12:00Z,28.1530,-82.8010,0.525,1111122 
COMPS,ioos:station:USF.COMPS:FHP:1,2013-11-01T00:18:00Z,28.1530,-82.8010,0.533,1111122 
COMPS,ioos:station:USF.COMPS:FHP:1,2013-11-01T00:24:00Z,28.1530,-82.8010,0.546,1111122 
COMPS,ioos:station:USF.COMPS:FHP:1,2013-11-01T00:30:00Z,28.1530,-82.8010,0.561,1111122 
COMPS,ioos:station:USF.COMPS:FHP:1,2013-11-01T00:36:00Z,28.1530,-82.8010,0.576,1111122 
COMPS,ioos:station:USF.COMPS:FHP:1,2013-11-01T00:42:00Z,28.1530,-82.8010,0.591,1111122 
COMPS,ioos:station:USF.COMPS:FHP:1,2013-11-01T00:48:00Z,28.1530,-82.8010,0.615,1111122 
COMPS,ioos:station:USF.COMPS:FHP:1,2013-11-01T00:54:00Z,28.1530,-82.8010,0.629,1111122 
COMPS,ioos:station:USF.COMPS:FHP:1,2013-11-01T01:00:00Z,28.1530,-82.8010,0.643,1111122 
COMPS,ioos:station:USF.COMPS:FHP:1,2013-11-01T01:06:00Z,28.1530,-82.8010,0.659,1111122 
COMPS,ioos:station:USF.COMPS:FHP:1,2013-11-01T01:12:00Z,28.1530,-82.8010,0.669,1111122 
COMPS,ioos:station:USF.COMPS:FHP:1,2013-11-01T01:18:00Z,28.1530,-82.8010,0.681,1111122 
COMPS,ioos:station:USF.COMPS:FHP:1,2013-11-01T01:24:00Z,28.1530,-82.8010,0.683,1111122 
COMPS,ioos:station:USF.COMPS:FHP:1,2013-11-01T01:30:00Z,28.1530,-82.8010,0.703,1111122 
COMPS,ioos:station:USF.COMPS:FHP:1,2013-11-01T01:36:00Z,28.1530,-82.8010,0.703,1111122 
COMPS,ioos:station:USF.COMPS:FHP:1,2013-11-01T01:42:00Z,28.1530,-82.8010,0.719,1111122 
COMPS,ioos:station:USF.COMPS:FHP:1,2013-11-01T01:48:00Z,28.1530,-82.8010,0.719,1111122 
COMPS,ioos:station:USF.COMPS:FHP:1,2013-11-01T01:54:00Z,28.1530,-82.8010,0.728,1111122 
COMPS,ioos:station:USF.COMPS:FHP:1,2013-11-01T02:00:00Z,28.1530,-82.8010,0.731,1111122 
COMPS,ioos:station:USF.COMPS:FHP:1,2013-11-01T02:06:00Z,28.1530,-82.8010,0.739,1111122 
COMPS,ioos:station:USF.COMPS:FHP:1,2013-11-01T02:12:00Z,28.1530,-82.8010,0.735,1111122 
COMPS,ioos:station:USF.COMPS:FHP:1,2013-11-01T02:18:00Z,28.1530,-82.8010,0.742,1111122 
COMPS,ioos:station:USF.COMPS:FHP:1,2013-11-01T02:24:00Z,28.1530,-82.8010,0.739,1111122 
COMPS,ioos:station:USF.COMPS:FHP:1,2013-11-01T02:30:00Z,28.1530,-82.8010,0.739,1111122 
COMPS,ioos:station:USF.COMPS:FHP:1,2013-11-01T02:36:00Z,28.1530,-82.8010,0.723,1111122 
COMPS,ioos:station:USF.COMPS:FHP:1,2013-11-01T02:42:00Z,28.1530,-82.8010,0.723,1111122 
COMPS,ioos:station:USF.COMPS:FHP:1,2013-11-01T02:48:00Z,28.1530,-82.8010,0.72,1111122 
COMPS,ioos:station:USF.COMPS:FHP:1,2013-11-01T02:54:00Z,28.1530,-82.8010,0.719,1111122 
COMPS,ioos:station:USF.COMPS:FHP:1,2013-11-01T03:00:00Z,28.1530,-82.8010,0.708,1111122 
COMPS,ioos:station:USF.COMPS:FHP:1,2013-11-01T03:06:00Z,28.1530,-82.8010,0.7,1111122 
COMPS,ioos:station:USF.COMPS:FHP:1,2013-11-01T03:12:00Z,28.1530,-82.8010,0.702,1111122 
COMPS,ioos:station:USF.COMPS:FHP:1,2013-11-01T03:18:00Z,28.1530,-82.8010,0.697,1111122 
COMPS,ioos:station:USF.COMPS:FHP:1,2013-11-01T03:24:00Z,28.1530,-82.8010,0.686,1111122 
COMPS,ioos:station:USF.COMPS:FHP:1,2013-11-01T03:30:00Z,28.1530,-82.8010,0.675,1111122 
COMPS,ioos:station:USF.COMPS:FHP:1,2013-11-01T03:36:00Z,28.1530,-82.8010,0.676,1111122 
COMPS,ioos:station:USF.COMPS:FHP:1,2013-11-01T03:42:00Z,28.1530,-82.8010,0.67,1111122 
COMPS,ioos:station:USF.COMPS:FHP:1,2013-11-01T03:48:00Z,28.1530,-82.8010,0.66,1111122 
COMPS,ioos:station:USF.COMPS:FHP:1,2013-11-01T03:54:00Z,28.1530,-82.8010,0.663,1111122 
COMPS,ioos:station:USF.COMPS:FHP:1,2013-11-01T04:00:00Z,28.1530,-82.8010,0.663,1111122 
COMPS,ioos:station:USF.COMPS:FHP:1,2013-11-01T04:06:00Z,28.1530,-82.8010,0.654,1111122 
COMPS,ioos:station:USF.COMPS:FHP:1,2013-11-01T04:12:00Z,28.1530,-82.8010,0.641,1111122 
COMPS,ioos:station:USF.COMPS:FHP:1,2013-11-01T04:18:00Z,28.1530,-82.8010,0.627,1111122 
COMPS,ioos:station:USF.COMPS:FHP:1,2013-11-01T04:24:00Z,28.1530,-82.8010,0.617,1111122 
COMPS,ioos:station:USF.COMPS:FHP:1,2013-11-01T04:30:00Z,28.1530,-82.8010,0.605,1111122 
COMPS,ioos:station:USF.COMPS:FHP:1,2013-11-01T04:36:00Z,28.1530,-82.8010,0.596,1111122 
COMPS,ioos:station:USF.COMPS:FHP:1,2013-11-01T04:42:00Z,28.1530,-82.8010,0.578,1111122 
COMPS,ioos:station:USF.COMPS:FHP:1,2013-11-01T04:48:00Z,28.1530,-82.8010,0.555,1111122 
COMPS,ioos:station:USF.COMPS:FHP:1,2013-11-01T04:54:00Z,28.1530,-82.8010,0.532,1111122 
COMPS,ioos:station:USF.COMPS:FHP:1,2013-11-01T05:00:00Z,28.1530,-82.8010,0.511,1111122 
COMPS,ioos:station:USF.COMPS:FHP:1,2013-11-01T05:06:00Z,28.1530,-82.8010,0.489,1111122 
COMPS,ioos:station:USF.COMPS:FHP:1,2013-11-01T05:12:00Z,28.1530,-82.8010,0.469,1111122 
COMPS,ioos:station:USF.COMPS:FHP:1,2013-11-01T05:18:00Z,28.1530,-82.8010,0.458,1111122 
COMPS,ioos:station:USF.COMPS:FHP:1,2013-11-01T05:24:00Z,28.1530,-82.8010,0.43,1111122 
COMPS,ioos:station:USF.COMPS:FHP:1,2013-11-01T05:30:00Z,28.1530,-82.8010,0.409,1111122 
COMPS,ioos:station:USF.COMPS:FHP:1,2013-11-01T05:36:00Z,28.1530,-82.8010,0.384,1111122 
COMPS,ioos:station:USF.COMPS:FHP:1,2013-11-01T05:42:00Z,28.1530,-82.8010,0.369,1111122 
COMPS,ioos:station:USF.COMPS:FHP:1,2013-11-01T05:48:00Z,28.1530,-82.8010,0.353,1111122 
COMPS,ioos:station:USF.COMPS:FHP:1,2013-11-01T05:54:00Z,28.1530,-82.8010,0.339,1111122 
COMPS,ioos:station:USF.COMPS:FHP:1,2013-11-01T06:00:00Z,28.1530,-82.8010,0.318,1111122 
COMPS,ioos:station:USF.COMPS:FHP:1,2013-11-01T06:06:00Z,28.1530,-82.8010,0.295,1111122 
COMPS,ioos:station:USF.COMPS:FHP:1,2013-11-01T06:12:00Z,28.1530,-82.8010,0.273,1111122 
COMPS,ioos:station:USF.COMPS:FHP:1,2013-11-01T06:18:00Z,28.1530,-82.8010,0.249,1111122 
COMPS,ioos:station:USF.COMPS:FHP:1,2013-11-01T06:24:00Z,28.1530,-82.8010,0.222,1111122 
COMPS,ioos:station:USF.COMPS:FHP:1,2013-11-01T06:36:00Z,28.1530,-82.8010,0.183,1111122 
COMPS,ioos:station:USF.COMPS:FHP:1,2013-11-01T06:42:00Z,28.1530,-82.8010,0.155,1111122 
COMPS,ioos:station:USF.COMPS:FHP:1,2013-11-01T06:48:00Z,28.1530,-82.8010,0.136,1111122 
COMPS,ioos:station:USF.COMPS:FHP:1,2013-11-01T06:54:00Z,28.1530,-82.8010,0.113,1111122 
COMPS,ioos:station:USF.COMPS:FHP:1,2013-11-01T07:00:00Z,28.1530,-82.8010,0.089,1111122 
COMPS,ioos:station:USF.COMPS:FHP:1,2013-11-01T07:06:00Z,28.1530,-82.8010,0.063,1111122 
COMPS,ioos:station:USF.COMPS:FHP:1,2013-11-01T07:12:00Z,28.1530,-82.8010,0.042,1111122 
COMPS,ioos:station:USF.COMPS:FHP:1,2013-11-01T07:18:00Z,28.1530,-82.8010,0.024,1111122 
COMPS,ioos:station:USF.COMPS:FHP:1,2013-11-01T07:24:00Z,28.1530,-82.8010,0.005,1111122 
COMPS,ioos:station:USF.COMPS:FHP:1,2013-11-01T07:30:00Z,28.1530,-82.8010,-0.018,1111122 
COMPS,ioos:station:USF.COMPS:FHP:1,2013-11-01T07:36:00Z,28.1530,-82.8010,-0.033,1111122 
COMPS,ioos:station:USF.COMPS:FHP:1,2013-11-01T07:42:00Z,28.1530,-82.8010,-0.05,1111122 
COMPS,ioos:station:USF.COMPS:FHP:1,2013-11-01T07:54:00Z,28.1530,-82.8010,-0.071,1111122 
COMPS,ioos:station:USF.COMPS:FHP:1,2013-11-01T08:00:00Z,28.1530,-82.8010,-0.092,1111122 
COMPS,ioos:station:USF.COMPS:FHP:1,2013-11-01T08:06:00Z,28.1530,-82.8010,-0.108,1111122 
COMPS,ioos:station:USF.COMPS:FHP:1,2013-11-01T08:12:00Z,28.1530,-82.8010,-0.12,1111122 
COMPS,ioos:station:USF.COMPS:FHP:1,2013-11-01T08:24:00Z,28.1530,-82.8010,-0.142,1111122 
COMPS,ioos:station:USF.COMPS:FHP:1,2013-11-01T08:30:00Z,28.1530,-82.8010,-0.151,1111122 
COMPS,ioos:station:USF.COMPS:FHP:1,2013-11-01T08:36:00Z,28.1530,-82.8010,-0.165,1111122 
COMPS,ioos:station:USF.COMPS:FHP:1,2013-11-01T08:54:00Z,28.1530,-82.8010,-0.192,1111122 
COMPS,ioos:station:USF.COMPS:FHP:1,2013-11-01T09:00:00Z,28.1530,-82.8010,-0.196,1111122 
COMPS,ioos:station:USF.COMPS:FHP:1,2013-11-01T09:06:00Z,28.1530,-82.8010,-0.198,1111122 
COMPS,ioos:station:USF.COMPS:FHP:1,2013-11-01T09:12:00Z,28.1530,-82.8010,-0.198,1111122 
COMPS,ioos:station:USF.COMPS:FHP:1,2013-11-01T09:24:00Z,28.1530,-82.8010,-0.199,1111122 
COMPS,ioos:station:USF.COMPS:FHP:1,2013-11-01T09:30:00Z,28.1530,-82.8010,-0.196,1111122 
COMPS,ioos:station:USF.COMPS:FHP:1,2013-11-01T09:36:00Z,28.1530,-82.8010,-0.196,1111122 
COMPS,ioos:station:USF.COMPS:FHP:1,2013-11-01T09:42:00Z,28.1530,-82.8010,-0.199,1111122 
COMPS,ioos:station:USF.COMPS:FHP:1,2013-11-01T09:48:00Z,28.1530,-82.8010,-0.202,1111122 
COMPS,ioos:station:USF.COMPS:FHP:1,2013-11-01T09:54:00Z,28.1530,-82.8010,-0.196,1111122 
COMPS,ioos:station:USF.COMPS:FHP:1,2013-11-01T10:06:00Z,28.1530,-82.8010,-0.189,1111122 
COMPS,ioos:station:USF.COMPS:FHP:1,2013-11-01T10:12:00Z,28.1530,-82.8010,-0.178,1111122 
COMPS,ioos:station:USF.COMPS:FHP:1,2013-11-01T10:18:00Z,28.1530,-82.8010,-0.173,1111122 
COMPS,ioos:station:USF.COMPS:FHP:1,2013-11-01T10:24:00Z,28.1530,-82.8010,-0.168,1111122 
COMPS,ioos:station:USF.COMPS:FHP:1,2013-11-01T10:30:00Z,28.1530,-82.8010,-0.158,1111122 
COMPS,ioos:station:USF.COMPS:FHP:1,2013-11-01T10:36:00Z,28.1530,-82.8010,-0.142,1111122 
COMPS,ioos:station:USF.COMPS:FHP:1,2013-11-01T10:42:00Z,28.1530,-82.8010,-0.13,1111122 
COMPS,ioos:station:USF.COMPS:FHP:1,2013-11-01T10:48:00Z,28.1530,-82.8010,-0.118,1111122 
COMPS,ioos:station:USF.COMPS:FHP:1,2013-11-01T10:54:00Z,28.1530,-82.8010,-0.105,1111122 
COMPS,ioos:station:USF.COMPS:FHP:1,2013-11-01T11:00:00Z,28.1530,-82.8010,-0.094,1111122 
COMPS,ioos:station:USF.COMPS:FHP:1,2013-11-01T11:06:00Z,28.1530,-82.8010,-0.083,1111122 
COMPS,ioos:station:USF.COMPS:FHP:1,2013-11-01T11:12:00Z,28.1530,-82.8010,-0.072,1111122 
COMPS,ioos:station:USF.COMPS:FHP:1,2013-11-01T11:18:00Z,28.1530,-82.8010,-0.053,1111122 
COMPS,ioos:station:USF.COMPS:FHP:1,2013-11-01T11:24:00Z,28.1530,-82.8010,-0.03,1111122 
COMPS,ioos:station:USF.COMPS:FHP:1,2013-11-01T11:30:00Z,28.1530,-82.8010,-0.014,1111122 
COMPS,ioos:station:USF.COMPS:FHP:1,2013-11-01T11:36:00Z,28.1530,-82.8010,0.004,1111122 
COMPS,ioos:station:USF.COMPS:FHP:1,2013-11-01T11:42:00Z,28.1530,-82.8010,0.021,1111122 
COMPS,ioos:station:USF.COMPS:FHP:1,2013-11-01T11:48:00Z,28.1530,-82.8010,0.037,1111122 
COMPS,ioos:station:USF.COMPS:FHP:1,2013-11-01T11:54:00Z,28.1530,-82.8010,0.062,1111122 
COMPS,ioos:station:USF.COMPS:FHP:1,2013-11-01T12:00:00Z,28.1530,-82.8010,0.086,1111122 
COMPS,ioos:station:USF.COMPS:FHP:1,2013-11-01T12:06:00Z,28.1530,-82.8010,0.113,1111122 
COMPS,ioos:station:USF.COMPS:FHP:1,2013-11-01T12:12:00Z,28.1530,-82.8010,0.138,1111122 
COMPS,ioos:station:USF.COMPS:FHP:1,2013-11-01T12:18:00Z,28.1530,-82.8010,0.164,1111122 
COMPS,ioos:station:USF.COMPS:FHP:1,2013-11-01T12:24:00Z,28.1530,-82.8010,0.185,1111122 
COMPS,ioos:station:USF.COMPS:FHP:1,2013-11-01T12:30:00Z,28.1530,-82.8010,0.209,1111122 
COMPS,ioos:station:USF.COMPS:FHP:1,2013-11-01T12:36:00Z,28.1530,-82.8010,0.231,1111122 
COMPS,ioos:station:USF.COMPS:FHP:1,2013-11-01T12:42:00Z,28.1530,-82.8010,0.253,1111122 
COMPS,ioos:station:USF.COMPS:FHP:1,2013-11-01T12:48:00Z,28.1530,-82.8010,0.278,1111122 
COMPS,ioos:station:USF.COMPS:FHP:1,2013-11-01T12:54:00Z,28.1530,-82.8010,0.302,1111122 
COMPS,ioos:station:USF.COMPS:FHP:1,2013-11-01T13:00:00Z,28.1530,-82.8010,0.321,1111122 
COMPS,ioos:station:USF.COMPS:FHP:1,2013-11-01T13:06:00Z,28.1530,-82.8010,0.343,1111122 
COMPS,ioos:station:USF.COMPS:FHP:1,2013-11-01T13:12:00Z,28.1530,-82.8010,0.36,1111122 
COMPS,ioos:station:USF.COMPS:FHP:1,2013-11-01T13:18:00Z,28.1530,-82.8010,0.387,1111122 
COMPS,ioos:station:USF.COMPS:FHP:1,2013-11-01T13:24:00Z,28.1530,-82.8010,0.404,1111122 
COMPS,ioos:station:USF.COMPS:FHP:1,2013-11-01T13:30:00Z,28.1530,-82.8010,0.428,1111122 
COMPS,ioos:station:USF.COMPS:FHP:1,2013-11-01T13:36:00Z,28.1530,-82.8010,0.443,1111122 
COMPS,ioos:station:USF.COMPS:FHP:1,2013-11-01T13:42:00Z,28.1530,-82.8010,0.463,1111122 
COMPS,ioos:station:USF.COMPS:FHP:1,2013-11-01T13:48:00Z,28.1530,-82.8010,0.481,1111122 
COMPS,ioos:station:USF.COMPS:FHP:1,2013-11-01T13:54:00Z,28.1530,-82.8010,0.496,1111122 
COMPS,ioos:station:USF.COMPS:FHP:1,2013-11-01T14:00:00Z,28.1530,-82.8010,0.507,1111122 
COMPS,ioos:station:USF.COMPS:FHP:1,2013-11-01T14:06:00Z,28.1530,-82.8010,0.518,1111122 
COMPS,ioos:station:USF.COMPS:FHP:1,2013-11-01T14:12:00Z,28.1530,-82.8010,0.53,1111122 
COMPS,ioos:station:USF.COMPS:FHP:1,2013-11-01T14:18:00Z,28.1530,-82.8010,0.539,1111122 
COMPS,ioos:station:USF.COMPS:FHP:1,2013-11-01T14:24:00Z,28.1530,-82.8010,0.55,1111122 
COMPS,ioos:station:USF.COMPS:FHP:1,2013-11-01T14:30:00Z,28.1530,-82.8010,0.564,1111122 
COMPS,ioos:station:USF.COMPS:FHP:1,2013-11-01T14:36:00Z,28.1530,-82.8010,0.576,1111122 
COMPS,ioos:station:USF.COMPS:FHP:1,2013-11-01T14:42:00Z,28.1530,-82.8010,0.59,1111122 
COMPS,ioos:station:USF.COMPS:FHP:1,2013-11-01T14:48:00Z,28.1530,-82.8010,0.597,1111122 
COMPS,ioos:station:USF.COMPS:FHP:1,2013-11-01T14:54:00Z,28.1530,-82.8010,0.611,1111122 
COMPS,ioos:station:USF.COMPS:FHP:1,2013-11-01T15:00:00Z,28.1530,-82.8010,0.625,1111122 
COMPS,ioos:station:USF.COMPS:FHP:1,2013-11-01T15:06:00Z,28.1530,-82.8010,0.633,1111122 
COMPS,ioos:station:USF.COMPS:FHP:1,2013-11-01T15:12:00Z,28.1530,-82.8010,0.645,1111122 
COMPS,ioos:station:USF.COMPS:FHP:1,2013-11-01T15:18:00Z,28.1530,-82.8010,0.649,1111122 
COMPS,ioos:station:USF.COMPS:FHP:1,2013-11-01T15:24:00Z,28.1530,-82.8010,0.649,1111122 
COMPS,ioos:station:USF.COMPS:FHP:1,2013-11-01T15:30:00Z,28.1530,-82.8010,0.654,1111122 
COMPS,ioos:station:USF.COMPS:FHP:1,2013-11-01T15:36:00Z,28.1530,-82.8010,0.659,1111122 
COMPS,ioos:station:USF.COMPS:FHP:1,2013-11-01T15:42:00Z,28.1530,-82.8010,0.662,1111122 
COMPS,ioos:station:USF.COMPS:FHP:1,2013-11-01T15:48:00Z,28.1530,-82.8010,0.668,1111122 
COMPS,ioos:station:USF.COMPS:FHP:1,2013-11-01T15:54:00Z,28.1530,-82.8010,0.673,1111122 
COMPS,ioos:station:USF.COMPS:FHP:1,2013-11-01T16:00:00Z,28.1530,-82.8010,0.677,1111122 
COMPS,ioos:station:USF.COMPS:FHP:1,2013-11-01T16:06:00Z,28.1530,-82.8010,0.671,1111122 
COMPS,ioos:station:USF.COMPS:FHP:1,2013-11-01T16:12:00Z,28.1530,-82.8010,0.672,1111122 
COMPS,ioos:station:USF.COMPS:FHP:1,2013-11-01T16:18:00Z,28.1530,-82.8010,0.673,1111122 
COMPS,ioos:station:USF.COMPS:FHP:1,2013-11-01T16:24:00Z,28.1530,-82.8010,0.67,1111122 
COMPS,ioos:station:USF.COMPS:FHP:1,2013-11-01T16:30:00Z,28.1530,-82.8010,0.669,1111122 
COMPS,ioos:station:USF.COMPS:FHP:1,2013-11-01T16:36:00Z,28.1530,-82.8010,0.672,1111122 
COMPS,ioos:station:USF.COMPS:FHP:1,2013-11-01T16:42:00Z,28.1530,-82.8010,0.661,1111122 
COMPS,ioos:station:USF.COMPS:FHP:1,2013-11-01T16:48:00Z,28.1530,-82.8010,0.659,1111122 
COMPS,ioos:station:USF.COMPS:FHP:1,2013-11-01T16:54:00Z,28.1530,-82.8010,0.646,1111122 
COMPS,ioos:station:USF.COMPS:FHP:1,2013-11-01T17:00:00Z,28.1530,-82.8010,0.644,1111122 
COMPS,ioos:station:USF.COMPS:FHP:1,2013-11-01T17:06:00Z,28.1530,-82.8010,0.635,1111122 
COMPS,ioos:station:USF.COMPS:FHP:1,2013-11-01T17:12:00Z,28.1530,-82.8010,0.617,1111122 
COMPS,ioos:station:USF.COMPS:FHP:1,2013-11-01T17:18:00Z,28.1530,-82.8010,0.596,1111122 
COMPS,ioos:station:USF.COMPS:FHP:1,2013-11-01T17:24:00Z,28.1530,-82.8010,0.58,1111122 
COMPS,ioos:station:USF.COMPS:FHP:1,2013-11-01T17:30:00Z,28.1530,-82.8010,0.573,1111122 
COMPS,ioos:station:USF.COMPS:FHP:1,2013-11-01T17:36:00Z,28.1530,-82.8010,0.551,1111122 
COMPS,ioos:station:USF.COMPS:FHP:1,2013-11-01T17:42:00Z,28.1530,-82.8010,0.534,1111122 
COMPS,ioos:station:USF.COMPS:FHP:1,2013-11-01T17:48:00Z,28.1530,-82.8010,0.516,1111122 
COMPS,ioos:station:USF.COMPS:FHP:1,2013-11-01T17:54:00Z,28.1530,-82.8010,0.494,1111122 
COMPS,ioos:station:USF.COMPS:FHP:1,2013-11-01T18:00:00Z,28.1530,-82.8010,0.476,1111122 
COMPS,ioos:station:USF.COMPS:FHP:1,2013-11-01T18:06:00Z,28.1530,-82.8010,0.46,1111122 
COMPS,ioos:station:USF.COMPS:FHP:1,2013-11-01T18:12:00Z,28.1530,-82.8010,0.447,1111122 
COMPS,ioos:station:USF.COMPS:FHP:1,2013-11-01T18:18:00Z,28.1530,-82.8010,0.431,1111122 
COMPS,ioos:station:USF.COMPS:FHP:1,2013-11-01T18:24:00Z,28.1530,-82.8010,0.414,1111122 
COMPS,ioos:station:USF.COMPS:FHP:1,2013-11-01T18:30:00Z,28.1530,-82.8010,0.401,1111122 
COMPS,ioos:station:USF.COMPS:FHP:1,2013-11-01T18:36:00Z,28.1530,-82.8010,0.379,1111122 
COMPS,ioos:station:USF.COMPS:FHP:1,2013-11-01T18:42:00Z,28.1530,-82.8010,0.369,1111122 
COMPS,ioos:station:USF.COMPS:FHP:1,2013-11-01T18:48:00Z,28.1530,-82.8010,0.353,1111122 
COMPS,ioos:station:USF.COMPS:FHP:1,2013-11-01T18:54:00Z,28.1530,-82.8010,0.338,1111122 
COMPS,ioos:station:USF.COMPS:FHP:1,2013-11-01T19:00:00Z,28.1530,-82.8010,0.322,1111122 
COMPS,ioos:station:USF.COMPS:FHP:1,2013-11-01T19:06:00Z,28.1530,-82.8010,0.315,1111122 
COMPS,ioos:station:USF.COMPS:FHP:1,2013-11-01T19:12:00Z,28.1530,-82.8010,0.29,1111122 
COMPS,ioos:station:USF.COMPS:FHP:1,2013-11-01T19:18:00Z,28.1530,-82.8010,0.268,1111122 
COMPS,ioos:station:USF.COMPS:FHP:1,2013-11-01T19:24:00Z,28.1530,-82.8010,0.255,1111122 
COMPS,ioos:station:USF.COMPS:FHP:1,2013-11-01T19:30:00Z,28.1530,-82.8010,0.238,1111122 
COMPS,ioos:station:USF.COMPS:FHP:1,2013-11-01T19:36:00Z,28.1530,-82.8010,0.221,1111122 
COMPS,ioos:station:USF.COMPS:FHP:1,2013-11-01T19:42:00Z,28.1530,-82.8010,0.206,1111122 
COMPS,ioos:station:USF.COMPS:FHP:1,2013-11-01T19:48:00Z,28.1530,-82.8010,0.187,1111122 
COMPS,ioos:station:USF.COMPS:FHP:1,2013-11-01T19:54:00Z,28.1530,-82.8010,0.17,1111122 
COMPS,ioos:station:USF.COMPS:FHP:1,2013-11-01T20:00:00Z,28.1530,-82.8010,0.161,1111122 
COMPS,ioos:station:USF.COMPS:FHP:1,2013-11-01T20:06:00Z,28.1530,-82.8010,0.146,1111122 
COMPS,ioos:station:USF.COMPS:FHP:1,2013-11-01T20:12:00Z,28.1530,-82.8010,0.129,1111122 
COMPS,ioos:station:USF.COMPS:FHP:1,2013-11-01T20:18:00Z,28.1530,-82.8010,0.123,1111122 
COMPS,ioos:station:USF.COMPS:FHP:1,2013-11-01T20:24:00Z,28.1530,-82.8010,0.108,1111122 
COMPS,ioos:station:USF.COMPS:FHP:1,2013-11-01T20:30:00Z,28.1530,-82.8010,0.098,1111122 
COMPS,ioos:station:USF.COMPS:FHP:1,2013-11-01T20:36:00Z,28.1530,-82.8010,0.088,1111122 
COMPS,ioos:station:USF.COMPS:FHP:1,2013-11-01T20:42:00Z,28.1530,-82.8010,0.076,1111122 
COMPS,ioos:station:USF.COMPS:FHP:1,2013-11-01T20:48:00Z,28.1530,-82.8010,0.071,1111122 
COMPS,ioos:station:USF.COMPS:FHP:1,2013-11-01T20:54:00Z,28.1530,-82.8010,0.061,1111122 
COMPS,ioos:station:USF.COMPS:FHP:1,2013-11-01T21:00:00Z,28.1530,-82.8010,0.051,1111122 
COMPS,ioos:station:USF.COMPS:FHP:1,2013-11-01T21:06:00Z,28.1530,-82.8010,0.049,1111122 
COMPS,ioos:station:USF.COMPS:FHP:1,2013-11-01T21:12:00Z,28.1530,-82.8010,0.055,1111122 
COMPS,ioos:station:USF.COMPS:FHP:1,2013-11-01T21:18:00Z,28.1530,-82.8010,0.06,1111122 
COMPS,ioos:station:USF.COMPS:FHP:1,2013-11-01T21:24:00Z,28.1530,-82.8010,0.059,1111122 
COMPS,ioos:station:USF.COMPS:FHP:1,2013-11-01T21:30:00Z,28.1530,-82.8010,0.066,1111122 
COMPS,ioos:station:USF.COMPS:FHP:1,2013-11-01T21:36:00Z,28.1530,-82.8010,0.065,1111122 
COMPS,ioos:station:USF.COMPS:FHP:1,2013-11-01T21:42:00Z,28.1530,-82.8010,0.076,1111122 
COMPS,ioos:station:USF.COMPS:FHP:1,2013-11-01T21:48:00Z,28.1530,-82.8010,0.079,1111122 
COMPS,ioos:station:USF.COMPS:FHP:1,2013-11-01T21:54:00Z,28.1530,-82.8010,0.082,1111122 
COMPS,ioos:station:USF.COMPS:FHP:1,2013-11-01T22:00:00Z,28.1530,-82.8010,0.095,1111122 
COMPS,ioos:station:USF.COMPS:FHP:1,2013-11-01T22:06:00Z,28.1530,-82.8010,0.101,1111122 
COMPS,ioos:station:USF.COMPS:FHP:1,2013-11-01T22:12:00Z,28.1530,-82.8010,0.114,1111122 
COMPS,ioos:station:USF.COMPS:FHP:1,2013-11-01T22:18:00Z,28.1530,-82.8010,0.122,1111122 
COMPS,ioos:station:USF.COMPS:FHP:1,2013-11-01T22:24:00Z,28.1530,-82.8010,0.136,1111122 
COMPS,ioos:station:USF.COMPS:FHP:1,2013-11-01T22:30:00Z,28.1530,-82.8010,0.145,1111122 
COMPS,ioos:station:USF.COMPS:FHP:1,2013-11-01T22:36:00Z,28.1530,-82.8010,0.155,1111122 
COMPS,ioos:station:USF.COMPS:FHP:1,2013-11-01T22:42:00Z,28.1530,-82.8010,0.166,1111122 
COMPS,ioos:station:USF.COMPS:FHP:1,2013-11-01T22:48:00Z,28.1530,-82.8010,0.177,1111122 
COMPS,ioos:station:USF.COMPS:FHP:1,2013-11-01T22:54:00Z,28.1530,-82.8010,0.194,1111122 
COMPS,ioos:station:USF.COMPS:FHP:1,2013-11-01T23:00:00Z,28.1530,-82.8010,0.207,1111122 
COMPS,ioos:station:USF.COMPS:FHP:1,2013-11-01T23:06:00Z,28.1530,-82.8010,0.225,1111122 
COMPS,ioos:station:USF.COMPS:FHP:1,2013-11-01T23:12:00Z,28.1530,-82.8010,0.241,1111122 
COMPS,ioos:station:USF.COMPS:FHP:1,2013-11-01T23:18:00Z,28.1530,-82.8010,0.258,1111122 
COMPS,ioos:station:USF.COMPS:FHP:1,2013-11-01T23:24:00Z,28.1530,-82.8010,0.277,1111122 
COMPS,ioos:station:USF.COMPS:FHP:1,2013-11-01T23:30:00Z,28.1530,-82.8010,0.291,1111122 
COMPS,ioos:station:USF.COMPS:FHP:1,2013-11-01T23:36:00Z,28.1530,-82.8010,0.311,1111122 
COMPS,ioos:station:USF.COMPS:FHP:1,2013-11-01T23:42:00Z,28.1530,-82.8010,0.333,1111122 
COMPS,ioos:station:USF.COMPS:FHP:1,2013-11-01T23:48:00Z,28.1530,-82.8010,0.35,1111122 
COMPS,ioos:station:USF.COMPS:FHP:1,2013-11-01T23:54:00Z,28.1530,-82.8010,0.37,1111122 
COMPS,ioos:station:USF.COMPS:FHP:1,2013-11-02T00:00:00Z,28.1530,-82.8010,0.385,1111122 
COMPS,ioos:station:USF.COMPS:FHP:1,2013-11-02T00:06:00Z,28.1530,-82.8010,0.403,1111122 
COMPS,ioos:station:USF.COMPS:FHP:1,2013-11-02T00:12:00Z,28.1530,-82.8010,0.422,1111122 
COMPS,ioos:station:USF.COMPS:FHP:1,2013-11-02T00:18:00Z,28.1530,-82.8010,0.436,1111122 
COMPS,ioos:station:USF.COMPS:FHP:1,2013-11-02T00:24:00Z,28.1530,-82.8010,0.454,1111122 
COMPS,ioos:station:USF.COMPS:FHP:1,2013-11-02T00:30:00Z,28.1530,-82.8010,0.467,1111122 
COMPS,ioos:station:USF.COMPS:FHP:1,2013-11-02T00:36:00Z,28.1530,-82.8010,0.49,1111122 
COMPS,ioos:station:USF.COMPS:FHP:1,2013-11-02T00:42:00Z,28.1530,-82.8010,0.508,1111122 
COMPS,ioos:station:USF.COMPS:FHP:1,2013-11-02T00:48:00Z,28.1530,-82.8010,0.528,1111122 
COMPS,ioos:station:USF.COMPS:FHP:1,2013-11-02T00:54:00Z,28.1530,-82.8010,0.544,1111122 
COMPS,ioos:station:USF.COMPS:FHP:1,2013-11-02T01:00:00Z,28.1530,-82.8010,0.563,1111122 
COMPS,ioos:station:USF.COMPS:FHP:1,2013-11-02T01:06:00Z,28.1530,-82.8010,0.581,1111122 
COMPS,ioos:station:USF.COMPS:FHP:1,2013-11-02T01:12:00Z,28.1530,-82.8010,0.598,1111122 
COMPS,ioos:station:USF.COMPS:FHP:1,2013-11-02T01:18:00Z,28.1530,-82.8010,0.616,1111122 
COMPS,ioos:station:USF.COMPS:FHP:1,2013-11-02T01:24:00Z,28.1530,-82.8010,0.639,1111122 
COMPS,ioos:station:USF.COMPS:FHP:1,2013-11-02T01:30:00Z,28.1530,-82.8010,0.658,1111122 
COMPS,ioos:station:USF.COMPS:FHP:1,2013-11-02T01:36:00Z,28.1530,-82.8010,0.675,1111122 
COMPS,ioos:station:USF.COMPS:FHP:1,2013-11-02T01:42:00Z,28.1530,-82.8010,0.69,1111122 
COMPS,ioos:station:USF.COMPS:FHP:1,2013-11-02T01:48:00Z,28.1530,-82.8010,0.71,1111122 
COMPS,ioos:station:USF.COMPS:FHP:1,2013-11-02T01:54:00Z,28.1530,-82.8010,0.725,1111122 
COMPS,ioos:station:USF.COMPS:FHP:1,2013-11-02T02:00:00Z,28.1530,-82.8010,0.738,1111122 
COMPS,ioos:station:USF.COMPS:FHP:1,2013-11-02T02:06:00Z,28.1530,-82.8010,0.749,1111122 
COMPS,ioos:station:USF.COMPS:FHP:1,2013-11-02T02:12:00Z,28.1530,-82.8010,0.752,1111122 
COMPS,ioos:station:USF.COMPS:FHP:1,2013-11-02T02:18:00Z,28.1530,-82.8010,0.765,1111122 
COMPS,ioos:station:USF.COMPS:FHP:1,2013-11-02T02:24:00Z,28.1530,-82.8010,0.776,1111122 
COMPS,ioos:station:USF.COMPS:FHP:1,2013-11-02T02:30:00Z,28.1530,-82.8010,0.785,1111122 
COMPS,ioos:station:USF.COMPS:FHP:1,2013-11-02T02:36:00Z,28.1530,-82.8010,0.789,1111122 
COMPS,ioos:station:USF.COMPS:FHP:1,2013-11-02T02:42:00Z,28.1530,-82.8010,0.793,1111122 
COMPS,ioos:station:USF.COMPS:FHP:1,2013-11-02T02:48:00Z,28.1530,-82.8010,0.799,1111122 
COMPS,ioos:station:USF.COMPS:FHP:1,2013-11-02T02:54:00Z,28.1530,-82.8010,0.801,1111122 
COMPS,ioos:station:USF.COMPS:FHP:1,2013-11-02T03:00:00Z,28.1530,-82.8010,0.809,1111122 
COMPS,ioos:station:USF.COMPS:FHP:1,2013-11-02T03:06:00Z,28.1530,-82.8010,0.812,1111122 
COMPS,ioos:station:USF.COMPS:FHP:1,2013-11-02T03:12:00Z,28.1530,-82.8010,0.823,1111122 
COMPS,ioos:station:USF.COMPS:FHP:1,2013-11-02T03:18:00Z,28.1530,-82.8010,0.824,1111122 
COMPS,ioos:station:USF.COMPS:FHP:1,2013-11-02T03:24:00Z,28.1530,-82.8010,0.826,1111122 
COMPS,ioos:station:USF.COMPS:FHP:1,2013-11-02T03:30:00Z,28.1530,-82.8010,0.832,1111122 
COMPS,ioos:station:USF.COMPS:FHP:1,2013-11-02T03:36:00Z,28.1530,-82.8010,0.832,1111122 
COMPS,ioos:station:USF.COMPS:FHP:1,2013-11-02T03:42:00Z,28.1530,-82.8010,0.84,1111122 